This is the latest recevied weather packets stored in our database for station/object WX5HOT. If no packets are shown the sender has not sent any weather packets the latest 10 day(s).
| Time | Temp. | Humidity | Pressure | Rain* | Wind** | Luminosity | Snow |
|---|---|---|---|---|---|---|---|
| 1777636797 | 10° C | 74% | 1066.7 hPa | 0 mm | - | 31 W/m² | - |
| 1777636494 | 10° C | 72% | 1066.4 hPa | 0 mm | - | 23 W/m² | - |
| 1777636190 | 10° C | 71% | 1066.8 hPa | 0 mm | - | 23 W/m² | - |
| 1777635885 | 10° C | 72% | 1066.5 hPa | 0 mm | - | 15 W/m² | - |
| 1777635582 | 10° C | 74% | 1066.8 hPa | 0 mm | - | 10 W/m² | - |
| 1777635278 | 10° C | 73% | 1066.6 hPa | 0 mm | - | 7 W/m² | - |
| 1777634975 | 10° C | 72% | 1066.6 hPa | 0 mm | - | 4 W/m² | - |
| 1777634671 | 10° C | 72% | 1066.6 hPa | 0 mm | - | 2 W/m² | - |
| 1777634369 | 10° C | 73% | 1066.5 hPa | 0 mm | - | 1 W/m² | - |
| 1777634066 | 10° C | 73% | 1066.6 hPa | 0 mm | - | 1 W/m² | - |
| 1777633762 | 10° C | 73% | 1066.6 hPa | 0 mm | - | 0 W/m² | - |
| 1777633460 | 10° C | 72% | 1066.6 hPa | 0 mm | - | 0 W/m² | - |
| 1777633158 | 10° C | 73% | 1066.6 hPa | 0 mm | - | 0 W/m² | - |
| 1777632854 | 10° C | 73% | 1066.9 hPa | 0 mm | - | 0 W/m² | - |
| 1777632550 | 10° C | 73% | 1066.7 hPa | 0 mm | - | 0 W/m² | - |
| 1777632248 | 10° C | 74% | 1066.4 hPa | 0 mm | - | 0 W/m² | - |
| 1777631944 | 10° C | 74% | 1066.4 hPa | 0 mm | - | 0 W/m² | - |
| 1777631643 | 10° C | 74% | 1066.3 hPa | 0 mm | - | 0 W/m² | - |
| 1777631339 | 10° C | 75% | 1066.2 hPa | 0 mm | - | 0 W/m² | - |
| 1777631036 | 10° C | 75% | 1066.1 hPa | 0 mm | - | 0 W/m² | - |
| 1777630733 | 10° C | 75% | 1066.2 hPa | 0 mm | - | 0 W/m² | - |
| 1777630429 | 10° C | 76% | 1066.2 hPa | 0 mm | - | 0 W/m² | - |
| 1777630127 | 10° C | 78% | 1066.2 hPa | 0 mm | - | 0 W/m² | - |
| 1777629824 | 9.44° C | 81% | 1066.3 hPa | 0 mm | - | 0 W/m² | - |
| 1777629521 | 9.44° C | 81% | 1066.2 hPa | 0 mm | - | 0 W/m² | - |
* Rain latest hour (hover to see other rain measurements)
** Current wind speed in m/s (hover to see current wind gust speed)